Flag for Germany Weather past 2 weeks in Emmendingen, Baden-Württemberg, Germany

Now
52 °F

Scattered clouds.


Feels Like: 51 °F
Forecast: 41 / 66 °F
Wind: 5 mph from North

Location: Lahr - CAN-AFB

Current Time: Sep 22, 2014 at 9:04:16 PM

Latest Report: Sep 22, 2014 at 7:50 PM


Visibility: N/A

Pressure: 30.18 "Hg

Humidity: 88%

Dew point: 48 °F

Location of EmmendingenLocation

Historic Weather in Emmendingen — Graph

°F

Emmendingen temperature yesterday

Maximum temperature yesterday: 66 °F (at 2:50 PM)
Minimum temperature yesterday: 63 °F (at 8:50 AM)
Average temperature yesterday: 64 °F

Past Weeks' High & Low Weather Summary

 TemperatureHumidityPressure
High79 °F (Sep 8, 4:20 PM)100% (Sep 8, 7:20 AM)30.18 "Hg (Sep 8, 7:20 AM)
Low48 °F (Sep 22, 7:20 AM)48% (Sep 8, 4:20 PM)29.83 "Hg (Sep 17, 3:50 PM)
Average65 °F78%30.00 "Hg
* Reported Sep 8 6:50 AM — Sep 22 7:50 PM, Emmendingen, Weather by CustomWeather, © 2014

Note: Actual official high and low records may vary slightly from our data, if they occured in-between our weather recording intervals... More about our weather records

Advertising

Emmendingen weather history for previous 24 hours

 ConditionsComfort  
Time TempWeatherWind HumidityBarometerVisibility
7:50 PM
Sep 22
52 °FScattered clouds.5 mph88%30.18 "HgN/A
7:20 PM52 °FScattered clouds.6 mph94%30.15 "HgN/A
6:50 PM52 °FPartly sunny.9 mph94%30.15 "HgN/A
6:20 PM59 °FScattered clouds.8 mph63%30.12 "HgN/A
5:50 PM59 °FPassing clouds.7 mph63%30.12 "HgN/A
5:20 PM61 °FPassing clouds.5 mph63%30.12 "HgN/A
4:50 PM61 °FPassing clouds.5 mph59%30.12 "HgN/A
4:20 PM59 °FPassing clouds.6 mph59%30.12 "HgN/A
3:50 PM59 °FSunny.7 mph55%30.12 "Hg10 mi
3:20 PM59 °FPassing clouds.9 mph59%30.12 "HgN/A
2:50 PM59 °FPartly sunny.8 mph55%30.12 "HgN/A
2:20 PM59 °FPartly sunny.9 mph59%30.12 "HgN/A
1:50 PM61 °FPartly sunny.9 mph59%30.12 "HgN/A
1:20 PM61 °FPartly sunny.5 mph52%30.15 "HgN/A
12:50 PM61 °FPartly sunny.9 mph63%30.15 "HgN/A
11:50 AM59 °FBroken clouds.5 mph77%30.15 "HgN/A
11:20 AM57 °FPartly sunny.5 mph72%30.18 "HgN/A
10:50 AM55 °FPartly sunny.6 mph82%30.18 "HgN/A
10:20 AM55 °FPartly sunny.2 mph82%30.18 "HgN/A
9:50 AM55 °FPartly sunny.2 mph88%30.18 "HgN/A
9:20 AM54 °FPartly sunny.2 mph94%30.18 "HgN/A
8:50 AM52 °FPartly sunny.2 mph94%30.15 "HgN/A
8:20 AM50 °FPartly sunny.2 mph94%30.15 "Hg5 mi
7:50 AM48 °FFog.2 mph94%30.15 "HgN/A
7:20 AM48 °FFog.2 mph94%30.15 "HgN/A
Weather by CustomWeather, © 2014

See weather overviewHow to use our weather pages